This demonstration page uses our WeatherBlox Daily Observations layout. Learn more.

Left ArrowRight Arrow

38.89511, -77.03637

Hourly Observations for April 30, 2017

Temp ( °F °C ) Dew Point ( °F °C ) Humidity (%) Winds ( mph kmh ) Pressure ( in mb ) Visibility ( mi km ) Precip ( " mm )
12:52 am 00:52 Mostly Clear 76 24.4 72 22.2 88 88 S 8 13 30.07 1018 10 16 0.00 0.00
1:52 am 01:52 Partly Cloudy 75 23.9 72 22.2 90 90 S 8 13 30.07 1018 10 16 0.00 0.00
2:52 am 02:52 Clear 75 23.9 72 22.2 90 90 S 7 11 30.06 1018 10 16 0.00 0.00
3:52 am 03:52 Mostly Clear 73 22.8 71 21.7 94 94 S 7 11 30.06 1018 8 13 0.00 0.00
4:52 am 04:52 Clear 73 22.8 71 21.7 94 94 S 3 6 30.06 1018 8 13 0.00 0.00
5:52 am 05:52 Mostly Clear 73 22.8 71 21.7 94 94 ENE 5 7 30.07 1018 8 13 0.00 0.00
6:22 am 06:22 Mostly Cloudy with Mist and Fog 72 22 72 22 100 100 ENE 8 13 30.09 1019 5 8 0.00 0.00
6:52 am 06:52 Mostly Cloudy 72 22.2 69 20.6 91 91 NNE 9 15 30.10 1019 8 13 0.00 0.00
7:52 am 07:52 Mostly Cloudy 72 22.2 69 20.6 91 91 NE 8 13 30.12 1020 10 16 0.00 0.00
8:52 am 08:52 Cloudy 74 23.3 69 20.6 85 85 NNE 5 7 30.12 1020 10 16 0.00 0.00
9:52 am 09:52 Cloudy 75 23.9 69 20.6 82 82 NE 7 11 30.13 1020 10 16 0.00 0.00
10:22 am 10:22 Mostly Cloudy 75 24 70 21 83 83 ENE 9 15 30.12 1020 10 16 0.00 0.00
10:52 am 10:52 Mostly Cloudy 79 26.1 71 21.7 77 77 NNE 5 7 30.10 1019 10 16 0.00 0.00
11:03 am 11:03 Mostly Cloudy 79 26 72 22 79 79 NE 6 9 30.09 1019 10 16 0.00 0.00
11:19 am 11:19 Mostly Cloudy 80 26.7 71 21.7 74 74 Calm 30.09 1019 10 16 0.00 0.00
11:52 am 11:52 Mostly Cloudy 83 28.3 72 22.2 70 70 ENE 3 6 30.10 1019 10 16 0.00 0.00
12:52 pm 12:52 Mostly Cloudy 85 29.4 72 22.2 65 65 E 5 7 30.08 1019 10 16 0.00 0.00
1:52 pm 13:52 Mostly Cloudy 84 28.9 69 20.6 61 61 SSE 13 20 30.05 1018 10 16 0.00 0.00
2:52 pm 14:52 Mostly Cloudy 86 30 69 20.6 57 57 S 14 22 30.03 1017 10 16 0.00 0.00
3:52 pm 15:52 Mostly Cloudy 84 28.9 68 20 59 59 S 14 22 30.03 1017 10 16 0.00 0.00
4:52 pm 16:52 Mostly Cloudy 87 30.6 68 20 53 53 S 14 22 30.01 1016 10 16 0.00 0.00
5:52 pm 17:52 Mostly Cloudy 85 29.4 65 18.3 51 51 S 21 33 30.00 1016 10 16 0.00 0.00
6:52 pm 18:52 Mostly Cloudy 81 27.2 66 18.9 61 61 S 12 19 29.99 1016 10 16 0.00 0.00
7:52 pm 19:52 Mostly Cloudy 79 26.1 67 19.4 67 67 S 10 17 30.00 1016 10 16 0.00 0.00
8:52 pm 20:52 Partly Cloudy 78 25.6 67 19.4 69 69 S 8 13 30.00 1016 10 16 0.00 0.00
9:52 pm 21:52 Mostly Clear 78 25.6 65 18.3 64 64 SSE 6 9 30.03 1017 10 16 0.00 0.00
10:37 pm 22:37 Mostly Clear 72 22.2 66 18.9 82 82 NE 14 22 30.03 1017 10 16 0.00 0.00
10:52 pm 22:52 Partly Cloudy 71 21.7 66 18.9 84 84 NE 12 19 30.03 1017 10 16 0.00 0.00
11:52 pm 23:52 Partly Cloudy 68 20 64 17.8 87 87 NE 12 19 30.03 1017 10 16 0.00 0.00

Powered by AerisWeather